STARLINK-2046, 47354

Orbit data source: Space-Track

STARLINK-2046, 47354 is a payload satellite owned by SpaceX/Seattle (US) in LEO that was launched on Wed, 20 Jan 2021 UTC via an FALCON 9 launch vehicle from the Air Force Eastern Test Range (AFETR). Payload-class satellites include a variety of spacecraft equipped with specific instruments for various scientific and technological missions. These include communications satellites like Starlink; space stations such as the ISS; scientific satellites like the Hubble; Earth observation satellites from companies like Planet Labs, Umbra, and HawkEye 360; GPS; miniature CubeSats for education and research; and military/defense satellites.

Loading next visibility...
Identifier
47354, 2021-005F
Orbit
LEO
Country
Flag of USUS
Related business
Manufacturer
SpaceX/Seattle
Mission
Operational Commercial Communications
Bus & Motor
STARLINK, Unknown motor
Mass
260 kg wet, ~248 kg dry
Launch date (UTC)
2021-01-20 (5 years ago)
Launch vehicle
FALCON 9
Launch site
Air Force Eastern Test Range (AFETR)
Object type
Payload
Rocket body
Debris
Shape & HBR
Box + 1 Pan, 10.1 m
Radar Cross Section
13.562 m², Large (>1 m²)

Expand to show TLE details & history
Last TLE update: 2 days ago

TLE from 2 days ago
0 STARLINK-2046
1 47354U 21005F   26171.43134456 -.00002553  00000-0 -70490-4 0  9999
2 47354  53.1586 266.0017 0000763  97.5718 262.5370 15.31717189299310
Epoch: 2026-06-20T10:21Z
TLE epoch observation values (Epoch: 2026-06-20T10:21:08.169Z)
Latitude
-0.00005°
Longitude
-157.92844°
Altitude
471.657 km
Speed
7.631 km/s
True Right ascension
17h 44m 00s
True Declination
0° 00' 00"
Sunlit
Object was in full shadow at epoch
Visualization orbit readout
Latitude
Unknown
Longitude
Unknown
Altitude
Unknown
Speed
Unknown
Apparent Right ascension
Unknown
Apparent Declination
Unknown
Sunlit
N/A
Visualization observer readout
Local Sidereal Time
21:32:38
Azimuth
Unknown
Elevation
Unknown
Doppler factor
Unknown
Orbital elements
Apogee altitude
471.468 km
Perigee altitude
470.423 km
Semi-major axis
6,849.083 km
Eccentricity
0.00008
Inclination
53.1586°
RAAN
266.0017°
Arg. of periapsis
97.5718°
True anomaly
262.52833°
Mean anomaly
262.537°
Eccentric anomaly
262.53267°
Mean motion
3.82908 °/min
Orbital period
94.02 mins
BSTAR
-0.00007049
Loading maneuver chart data...
Computing Atmospheric mass density...

Documentation

Showing up to 5 results
|